Location: Luz Observatory
(34.5000°N, 117.2833°W)
Time: 23:15:39
(UTC-08:00)

HST - Visible Passes

Search period start: 22 November 2014 00:00
Search period end: 02 December 2014 00:00
Orbit: 545 x 550 km, 28.5° (Epoch: 21 November)

Date Brightness Start Highest point End Pass type
(mag) Time Alt. Az. Time Alt. Az. Time Alt. Az.
22 Nov 2.7 04:48:45 17° SSW 04:50:45 24° SSE 04:54:09 10° ESE visible
23 Nov 2.4 04:41:59 24° SSW 04:43:10 28° SSE 04:46:45 10° ESE visible
24 Nov 2.1 04:35:07 30° S 04:35:36 31° S 04:39:18 10° ESE visible
25 Nov 2.0 04:28:12 33° SSE 04:28:12 33° SSE 04:31:49 10° ESE visible
26 Nov 2.2 04:21:12 32° SSE 04:21:12 32° SSE 04:24:17 10° ESE visible
26 Nov 2.3 05:57:50 10° WSW 06:01:30 30° S 06:05:09 10° SE visible
27 Nov 2.5 04:14:11 28° SE 04:14:11 28° SE 04:16:43 10° ESE visible
27 Nov 2.4 05:50:22 10° WSW 05:53:53 26° SSW 05:57:25 10° SE visible
28 Nov 2.9 04:07:08 24° SE 04:07:08 24° SE 04:09:07 10° ESE visible
28 Nov 2.6 05:42:57 10° WSW 05:46:16 23° SSW 05:49:35 10° SE visible
29 Nov 3.3 04:00:04 19° SE 04:00:04 19° SE 04:01:29 10° ESE visible
29 Nov 2.7 05:35:36 10° WSW 05:38:38 19° SSW 05:41:39 10° SSE visible
30 Nov 3.6 03:53:00 14° SE 03:53:00 14° SE 03:53:47 10° SE visible
30 Nov 3.0 05:28:32 11° WSW 05:30:58 16° SSW 05:33:32 10° SSE visible
01 Dec 3.9 03:45:56 11° SE 03:45:56 11° SE 03:46:03 10° SE visible
01 Dec 3.1 05:21:28 10° SW 05:23:17 13° SSW 05:25:09 10° S visible
